EW9605 Weather Reports


Display with metric or nautical units.
time (UTC)temp
F
wind
direction
speed
MPH
gust
MPH
rain 1hr
in
rain 24hr
in
rain mn
in
humidity
%
barometer
mb
20260508224634 91 307 1.0 3.0 0.00 0.00 0.00 49 1010.3
20260508224154 91 239 2.0 6.0 0.00 0.00 0.00 49 1010.2
20260508223651 91 265 5.0 8.0 0.00 0.00 0.00 50 1010.1
20260508223130 90 276 5.0 9.0 0.00 0.00 0.00 50 1010.2
20260508222628 91 270 3.0 7.0 0.00 0.00 0.00 49 1010.0
20260508222147 91 252 6.0 9.0 0.00 0.00 0.00 50 1010.1
20260508221626 91 281 5.0 11.0 0.00 0.00 0.00 50 1010.1
20260508221124 91 260 5.0 10.0 0.00 0.00 0.00 49 1010.0
20260508220623 91 286 4.0 7.0 0.00 0.00 0.00 50 1010.1
20260508220122 91 268 3.0 6.0 0.00 0.00 0.00 51 1010.2
20260508215620 92 261 3.0 6.0 0.00 0.00 0.00 50 1010.2
20260508215119 91 223 3.0 8.0 0.00 0.00 0.00 51 1010.3
20260508214618 92 258 4.0 6.0 0.00 0.00 0.00 51 1010.2
20260508214136 92 292 3.0 9.0 0.00 0.00 0.00 50 1010.3
20260508213615 93 270 6.0 9.0 0.00 0.00 0.00 49 1010.3
20260508213134 93 286 3.0 7.0 0.00 0.00 0.00 51 1010.2
20260508212632 93 258 4.0 9.0 0.00 0.00 0.00 51 1010.1
20260508212131 93 249 4.0 10.0 0.00 0.00 0.00 51 1010.2
20260508211630 93 273 3.0 6.0 0.00 0.00 0.00 51 1010.2
20260508211129 92 225 5.0 9.0 0.00 0.00 0.00 51 1010.3
20260508210627 92 289 4.0 7.0 0.00 0.00 0.00 52 1009.9
20260508210126 92 228 2.0 6.0 0.00 0.00 0.00 52 1010.1
20260508205625 92 258 2.0 4.0 0.00 0.00 0.00 50 1010.1
20260508205123 92 288 5.0 8.0 0.00 0.00 0.00 53 1010.2
20260508204622 92 313 3.0 4.0 0.00 0.00 0.00 52 1010.4
20260508203620 93 250 0.0 4.0 0.00 0.00 0.00 49 1010.3
20260508203118 92 0.0 0.0 0.00 0.00 0.00 51 1010.5
20260508202617 92 0.0 0.0 0.00 0.00 0.00 49 1010.5
20260508202116 92 237 1.0 6.0 0.00 0.00 0.00 50 1010.4
20260508201656 92 260 5.0 14.0 0.00 0.00 0.00 52 1010.4
20260508201153 91 0.0 0.0 0.00 0.00 0.00 53 1010.6
20260508200632 91 286 0.0 1.0 0.00 0.00 0.00 48 1010.8
20260508200131 91 56 2.0 4.0 0.00 0.00 0.00 49 1010.9
20260508195650 90 47 0.0 2.0 0.00 0.00 0.00 52 1010.8
20260508195128 91 0.0 0.0 0.00 0.00 0.00 49 1010.9
20260508194627 91 303 5.0 8.0 0.00 0.00 0.00 48 1010.9
20260508194126 91 24 0.0 2.0 0.00 0.00 0.00 50 1011.2
20260508193624 91 309 2.0 4.0 0.00 0.00 0.00 49 1011.4
20260508193224 91 0.0 0.0 0.00 0.00 0.00 50 1011.3
20260508192622 91 316 2.0 6.0 0.00 0.00 0.00 50 1011.7
20260508192121 91 313 0.0 1.0 0.00 0.00 0.00 51 1011.6
20260508191619 90 0.0 0.0 0.00 0.00 0.00 51 1011.7
20260508191118 90 0.0 0.0 0.00 0.00 0.00 51 1011.9
20260508190616 90 0.0 0.0 0.00 0.00 0.00 54 1011.8
20260508190135 89 0.0 0.0 0.00 0.00 0.00 53 1011.8
20260508185633 89 0.0 0.0 0.00 0.00 0.00 52 1011.8
20260508185132 90 58 0.0 1.0 0.00 0.00 0.00 53 1011.8
20260508184631 90 294 2.0 3.0 0.00 0.00 0.00 52 1012.0
20260508184130 90 311 1.0 3.0 0.00 0.00 0.00 53 1011.9
20260508183628 90 20 1.0 6.0 0.00 0.00 0.00 58 1012.2
20260508183127 89 239 3.0 7.0 0.00 0.00 0.00 57 1012.2
20260508182626 89 345 2.0 6.0 0.00 0.00 0.00 58 1012.4
20260508182124 89 6 1.0 4.0 0.00 0.00 0.00 58 1012.6
20260508181623 89 56 0.0 1.0 0.00 0.00 0.00 59 1012.7
20260508181122 88 333 2.0 6.0 0.00 0.00 0.00 61 1012.8
20260508180620 89 32 1.0 3.0 0.00 0.00 0.00 58 1012.8
20260508180119 88 317 3.0 6.0 0.00 0.00 0.00 59 1013.0
20260508175618 88 48 1.0 7.0 0.00 0.00 0.00 59 1012.9
20260508175117 89 63 1.0 3.0 0.00 0.00 0.00 58 1012.9
20260508174635 89 0.0 0.0 0.00 0.00 0.00 58 1013.1
20260508174135 88 323 3.0 6.0 0.00 0.00 0.00 60 1013.1
20260508173632 88 326 4.0 9.0 0.00 0.00 0.00 59 1013.1
20260508173131 88 276 5.0 8.0 0.00 0.00 0.00 58 1013.1
20260508172630 88 0.0 0.0 0.00 0.00 0.00 62 1013.1
20260508172128 88 325 0.0 1.0 0.00 0.00 0.00 61 1013.2
20260508171627 88 34 2.0 3.0 0.00 0.00 0.00 59 1013.3
20260508171126 89 25 3.0 4.0 0.00 0.00 0.00 60 1013.2
20260508170645 88 0.0 0.0 0.00 0.00 0.00 61 1013.4
20260508170123 88 354 2.0 4.0 0.00 0.00 0.00 62 1013.4
20260508165621 88 51 1.0 3.0 0.00 0.00 0.00 62 1013.4
20260508165120 88 43 2.0 3.0 0.00 0.00 0.00 62 1013.4
20260508164619 88 0.0 0.0 0.00 0.00 0.00 60 1013.6
20260508164117 88 313 3.0 8.0 0.00 0.00 0.00 62 1013.7
20260508163636 87 289 1.0 2.0 0.00 0.00 0.00 62 1013.8
20260508163135 87 351 3.0 7.0 0.00 0.00 0.00 63 1013.9
20260508162634 87 43 2.0 6.0 0.00 0.00 0.00 64 1013.9
20260508162132 87 284 3.0 4.0 0.00 0.00 0.00 63 1014.0
20260508161631 86 330 5.0 9.0 0.00 0.00 0.00 62 1014.0
20260508161130 86 298 3.0 6.0 0.00 0.00 0.00 65 1014.0
20260508160628 86 79 1.0 6.0 0.00 0.00 0.00 67 1014.1
20260508160147 86 54 2.0 6.0 0.00 0.00 0.00 65 1014.2
20260508155626 86 0.0 0.0 0.00 0.00 0.00 68 1014.2
20260508155125 85 0.0 0.0 0.00 0.00 0.00 65 1014.5
20260508154623 85 292 1.0 6.0 0.00 0.00 0.00 67 1014.4
20260508154122 86 32 1.0 4.0 0.00 0.00 0.00 68 1014.5
20260508153701 86 0.0 0.0 0.00 0.00 0.00 70 1014.6
20260508153119 85 39 2.0 4.0 0.00 0.00 0.00 70 1014.6
20260508152618 85 0.0 0.0 0.00 0.00 0.00 69 1014.6
20260508152117 85 0.0 0.0 0.00 0.00 0.00 71 1014.5
20260508151615 84 319 3.0 7.0 0.00 0.00 0.00 73 1014.7
20260508151134 84 300 0.0 2.0 0.00 0.00 0.00 72 1014.7
20260508150633 83 305 3.0 6.0 0.00 0.00 0.00 72 1014.7
20260508150132 83 327 0.0 2.0 0.00 0.00 0.00 73 1014.5
20260508145650 83 268 2.0 4.0 0.00 0.00 0.00 73 1014.6
20260508145129 84 275 1.0 4.0 0.00 0.00 0.00 72 1014.6
20260508144628 83 0.0 0.0 0.00 0.00 0.00 75 1014.5
20260508144127 83 323 0.0 1.0 0.00 0.00 0.00 75 1014.7
20260508143625 83 258 2.0 6.0 0.00 0.00 0.00 74 1014.5
20260508143124 82 314 1.0 4.0 0.00 0.00 0.00 77 1014.5
20260508142623 82 0.0 0.0 0.00 0.00 0.00 78 1014.6
20260508142122 82 0.0 0.0 0.00 0.00 0.00 78 1014.7
20260508141620 82 287 1.0 6.0 0.00 0.00 0.00 79 1014.5
20260508141119 82 262 0.0 3.0 0.00 0.00 0.00 79 1014.5
20260508140618 82 0.0 0.0 0.00 0.00 0.00 80 1014.7
20260508140117 81 0.0 0.0 0.00 0.00 0.00 81 1014.8
20260508135635 81 279 1.0 2.0 0.00 0.00 0.00 81 1014.7
20260508135134 81 291 1.0 4.0 0.00 0.00 0.00 82 1014.7
20260508134653 81 0.0 0.0 0.00 0.00 0.00 83 1014.7
20260508134151 81 0.0 0.0 0.00 0.00 0.00 82 1014.6
20260508133650 81 0.0 0.0 0.00 0.00 0.00 84 1014.6
20260508133149 80 0.0 0.0 0.00 0.00 0.00 84 1014.7
20260508132628 80 269 0.0 2.0 0.00 0.00 0.00 85 1014.7
20260508132146 80 0.0 0.0 0.00 0.00 0.00 86 1014.6
20260508131625 80 0.0 0.0 0.00 0.00 0.00 87 1014.6
20260508131124 80 0.0 0.0 0.00 0.00 0.00 88 1014.5
20260508130622 79 0.0 0.0 0.00 0.00 0.00 89 1014.6
20260508130121 79 0.0 0.0 0.00 0.00 0.00 90 1014.4
20260508125620 78 0.0 0.0 0.00 0.00 0.00 90 1014.5
20260508125118 78 0.0 0.0 0.00 0.00 0.00 90 1014.4
20260508124617 78 0.0 0.0 0.00 0.00 0.00 91 1014.5
20260508124116 78 307 2.0 3.0 0.00 0.00 0.00 91 1014.5
20260508123635 78 0.0 0.0 0.00 0.00 0.00 92 1014.4
20260508123133 77 0.0 0.0 0.00 0.00 0.00 92 1014.2
20260508122632 77 0.0 0.0 0.00 0.00 0.00 92 1014.4
20260508122131 77 0.0 0.0 0.00 0.00 0.00 92 1014.2
20260508121629 76 266 0.0 1.0 0.00 0.00 0.00 92 1014.1
20260508121128 76 0.0 0.0 0.00 0.00 0.00 92 1014.1
20260508120626 76 0.0 0.0 0.00 0.00 0.00 93 1014.0
20260508120145 76 0.0 0.0 0.00 0.00 0.00 93 1014.1
20260508115624 76 0.0 0.0 0.00 0.00 0.00 94 1013.9
20260508115122 75 0.0 0.0 0.00 0.00 0.00 95 1014.1
20260508114621 74 0.0 0.0 0.00 0.00 0.00 95 1013.9
20260508114120 74 0.0 0.0 0.00 0.00 0.00 94 1013.7
20260508113619 74 0.0 0.0 0.00 0.00 0.00 94 1013.8
20260508113118 73 0.0 0.0 0.00 0.00 0.00 94 1013.6
20260508112616 73 0.0 0.0 0.00 0.00 0.00 94 1013.6
20260508112134 73 0.0 0.0 0.00 0.00 0.00 94 1013.3
20260508111633 72 0.0 0.0 0.00 0.00 0.00 94 1013.4
20260508111132 72 0.0 0.0 0.00 0.00 0.00 94 1013.2
20260508110630 72 0.0 0.0 0.00 0.00 0.00 94 1013.1
20260508110129 72 0.0 0.0 0.00 0.00 0.00 93 1013.1
20260508105628 72 0.0 0.0 0.00 0.00 0.00 94 1012.9
20260508105126 72 0.0 0.0 0.00 0.00 0.00 94 1012.8
20260508104625 72 0.0 0.0 0.00 0.00 0.00 94 1012.9
20260508104124 72 0.0 0.0 0.00 0.00 0.00 94 1012.9
20260508103622 72 0.0 0.0 0.00 0.00 0.00 93 1012.9
20260508103121 72 0.0 0.0 0.00 0.00 0.00 93 1013.0
20260508102620 72 0.0 0.0 0.00 0.00 0.00 93 1012.8
20260508102118 72 0.0 0.0 0.00 0.00 0.00 93 1012.7
20260508101617 72 0.0 0.0 0.00 0.00 0.00 93 1012.6
20260508101116 72 0.0 0.0 0.00 0.00 0.00 93 1012.5
20260508100634 72 0.0 0.0 0.00 0.00 0.00 93 1012.6
20260508100133 72 0.0 0.0 0.00 0.00 0.00 93 1012.6
20260508095652 72 0.0 0.0 0.00 0.00 0.00 93 1012.5
20260508095131 72 0.0 0.0 0.00 0.00 0.00 93 1012.3
20260508094629 72 0.0 0.0 0.00 0.00 0.00 93 1012.3
20260508094128 72 0.0 0.0 0.00 0.00 0.00 93 1012.3
20260508093626 72 0.0 0.0 0.00 0.00 0.00 93 1012.2
20260508093125 72 0.0 0.0 0.00 0.00 0.00 93 1012.4
20260508092624 72 0.0 0.0 0.00 0.00 0.00 93 1012.5
20260508092122 72 0.0 0.0 0.00 0.00 0.00 93 1012.3
20260508091621 72 0.0 0.0 0.00 0.00 0.00 93 1012.2
20260508091120 72 0.0 0.0 0.00 0.00 0.00 93 1012.4
20260508090618 72 0.0 0.0 0.00 0.00 0.00 93 1012.4
20260508090258 72 0.0 0.0 0.00 0.00 0.00 93 1012.3
20260508085616 72 0.0 0.0 0.00 0.00 0.00 93 1012.1
20260508085135 72 0.0 0.0 0.00 0.00 0.00 93 1012.1
20260508084633 72 0.0 0.0 0.00 0.00 0.00 93 1012.2
20260508084152 72 0.0 0.0 0.00 0.00 0.00 93 1012.3
20260508083630 73 0.0 0.0 0.00 0.00 0.00 93 1012.1
20260508083129 73 0.0 0.0 0.00 0.00 0.00 93 1012.0
20260508082628 73 0.0 0.0 0.00 0.00 0.00 93 1012.2
20260508082126 73 0.0 0.0 0.00 0.00 0.00 93 1012.1
20260508081645 73 0.0 0.0 0.00 0.00 0.00 93 1012.0
20260508081124 73 0.0 0.0 0.00 0.00 0.00 93 1012.1
20260508080622 73 0.0 0.0 0.00 0.00 0.00 93 1012.1
20260508080121 73 0.0 0.0 0.00 0.00 0.00 93 1012.1
20260508075619 73 0.0 0.0 0.00 0.00 0.00 94 1012.4
20260508075118 73 0.0 0.0 0.00 0.00 0.00 94 1012.4
20260508074637 73 0.0 0.0 0.00 0.00 0.00 94 1012.1
20260508074115 73 0.0 0.0 0.00 0.00 0.00 94 1012.1
20260508073634 73 0.0 0.0 0.00 0.00 0.00 93 1012.1
20260508073133 73 0.0 0.0 0.00 0.00 0.00 93 1012.4
20260508072631 74 0.0 0.0 0.00 0.00 0.00 93 1012.4
20260508072130 74 0.0 0.0 0.00 0.00 0.00 93 1012.3
20260508071649 74 0.0 0.0 0.00 0.00 0.00 93 1012.4
20260508071128 74 0.0 0.0 0.00 0.00 0.00 93 1012.3
20260508070626 74 0.0 0.0 0.00 0.00 0.00 93 1012.4
20260508070125 74 0.0 0.0 0.00 0.00 0.00 92 1012.5
20260508065645 74 0.0 0.0 0.00 0.00 0.00 93 1012.5
20260508065122 74 0.0 0.0 0.00 0.00 0.00 93 1012.4
20260508064621 74 0.0 0.0 0.00 0.00 0.00 92 1012.4
20260508064119 74 0.0 0.0 0.00 0.00 0.00 92 1012.6
20260508063618 74 0.0 0.0 0.00 0.00 0.00 92 1012.6
20260508063117 74 0.0 0.0 0.00 0.00 0.00 92 1012.6
20260508062616 74 0.0 0.0 0.00 0.00 0.00 92 1012.7
20260508062134 74 0.0 0.0 0.00 0.00 0.00 92 1012.8
20260508061633 74 0.0 0.0 0.00 0.00 0.00 92 1012.8
20260508061132 74 0.0 0.0 0.00 0.00 0.00 91 1012.7
20260508060631 74 0.0 0.0 0.00 0.00 0.00 91 1012.7
20260508060130 74 0.0 0.0 0.00 0.00 0.00 92 1012.8
20260508055628 74 0.0 0.0 0.00 0.00 0.00 92 1012.9
20260508055127 74 0.0 0.0 0.00 0.00 0.00 91 1013.0
20260508054706 74 0.0 0.0 0.00 0.00 0.00 91 1013.1
20260508054124 74 0.0 0.0 0.00 0.00 0.00 91 1013.2
20260508053623 74 0.0 0.0 0.00 0.00 0.00 90 1013.2
20260508053122 74 0.0 0.0 0.00 0.00 0.00 90 1013.1
20260508052641 74 0.0 0.0 0.00 0.00 0.00 90 1013.0
20260508052139 74 0.0 0.0 0.00 0.00 0.00 90 1013.0
20260508051618 74 0.0 0.0 0.00 0.00 0.00 90 1013.2
20260508051117 75 0.0 0.0 0.00 0.00 0.00 90 1013.2
20260508050616 75 0.0 0.0 0.00 0.00 0.00 90 1013.1
20260508050135 75 0.0 0.0 0.00 0.00 0.00 90 1013.2
20260508045633 75 0.0 0.0 0.00 0.00 0.00 91 1013.2
20260508045132 75 0.0 0.0 0.00 0.00 0.00 90 1013.2
20260508044631 75 0.0 0.0 0.00 0.00 0.00 90 1013.1
20260508044129 75 0.0 0.0 0.00 0.00 0.00 90 1013.2
20260508043627 75 0.0 0.0 0.00 0.00 0.00 90 1013.2
20260508043126 75 0.0 0.0 0.00 0.00 0.00 90 1013.2
20260508042625 75 0.0 0.0 0.00 0.00 0.00 90 1013.3
20260508042124 75 0.0 0.0 0.00 0.00 0.00 90 1013.2
20260508041622 75 0.0 0.0 0.00 0.00 0.00 89 1013.4
20260508041121 75 0.0 0.0 0.00 0.00 0.00 89 1013.4
20260508040620 75 0.0 0.0 0.00 0.00 0.00 88 1013.5
20260508040118 75 0.0 0.0 0.00 0.00 0.00 88 1013.4
20260508035617 76 0.0 0.0 0.00 0.00 0.00 88 1013.4
20260508035115 76 0.0 0.0 0.00 0.00 0.00 88 1013.5
20260508034634 76 0.0 0.0 0.00 0.00 0.00 88 1013.6
20260508034133 76 0.0 0.0 0.00 0.00 0.00 88 1013.6
20260508033632 76 0.0 0.0 0.00 0.00 0.00 87 1013.5
20260508033130 76 0.0 0.0 0.00 0.00 0.00 88 1013.7
20260508032649 76 0.0 0.0 0.00 0.00 0.00 87 1013.6
20260508032128 76 0.0 0.0 0.00 0.00 0.00 87 1013.3
20260508031627 76 0.0 0.0 0.00 0.00 0.00 86 1013.5
20260508031125 76 0.0 0.0 0.00 0.00 0.00 86 1013.5
20260508030624 76 0.0 0.0 0.00 0.00 0.00 86 1013.4
20260508030123 76 0.0 0.0 0.00 0.00 0.00 85 1013.4
20260508025621 76 0.0 0.0 0.00 0.00 0.00 85 1013.2
20260508025120 76 0.0 0.0 0.00 0.00 0.00 85 1013.4
20260508024619 76 0.0 0.0 0.00 0.00 0.00 85 1013.3
20260508024158 76 0.0 0.0 0.00 0.00 0.00 84 1013.4
20260508023616 76 0.0 0.0 0.00 0.00 0.00 84 1013.5
20260508023135 77 0.0 0.0 0.00 0.00 0.00 83 1013.3
20260508022654 77 0.0 0.0 0.00 0.00 0.00 83 1013.2
20260508022132 77 0.0 0.0 0.00 0.00 0.00 82 1013.1
20260508021631 77 274 0.0 1.0 0.00 0.00 0.00 81 1013.3
20260508021130 77 0.0 0.0 0.00 0.00 0.00 81 1013.3
20260508020628 77 0.0 0.0 0.00 0.00 0.00 81 1013.3
20260508020127 77 0.0 0.0 0.00 0.00 0.00 81 1013.2
20260508015625 78 0.0 0.0 0.00 0.00 0.00 79 1013.3
20260508015144 78 0.0 0.0 0.00 0.00 0.00 80 1013.2
20260508014622 78 0.0 0.0 0.00 0.00 0.00 79 1013.1
20260508014121 78 0.0 0.0 0.00 0.00 0.00 79 1013.2
20260508013620 78 0.0 0.0 0.00 0.00 0.00 78 1013.1
20260508013118 78 0.0 0.0 0.00 0.00 0.00 77 1013.1
20260508012637 78 0.0 0.0 0.00 0.00 0.00 76 1013.1
20260508012115 78 0.0 0.0 0.00 0.00 0.00 75 1013.0
20260508011634 78 0.0 0.0 0.00 0.00 0.00 75 1012.9
20260508011133 79 232 0.0 2.0 0.00 0.00 0.00 74 1013.0
20260508010651 79 282 1.0 3.0 0.00 0.00 0.00 73 1013.1
20260508010130 79 0.0 0.0 0.00 0.00 0.00 72 1012.8
20260508005629 79 0.0 0.0 0.00 0.00 0.00 72 1013.0
20260508005128 79 0.0 0.0 0.00 0.00 0.00 71 1013.0
20260508004626 79 0.0 0.0 0.00 0.00 0.00 71 1013.1
20260508004125 80 0.0 0.0 0.00 0.00 0.00 70 1013.1
20260508003624 80 0.0 0.0 0.00 0.00 0.00 70 1013.0
20260508003123 80 257 1.0 3.0 0.00 0.00 0.00 69 1013.0
20260508002621 80 254 1.0 2.0 0.00 0.00 0.00 69 1013.0
20260508002120 81 0.0 0.0 0.00 0.00 0.00 67 1012.8
20260508001619 81 245 2.0 6.0 0.00 0.00 0.00 66 1012.7
20260508001117 81 217 0.0 3.0 0.00 0.00 0.00 65 1012.8
20260508000616 82 243 2.0 6.0 0.00 0.00 0.00 64 1012.9
20260508000155 82 249 2.0 4.0 0.00 0.00 0.00 62 1012.8
20260507235633 83 262 2.0 3.0 0.00 0.00 0.00 60 1012.7
20260507235132 83 251 2.0 3.0 0.00 0.00 0.00 59 1012.8
20260507234631 83 254 4.0 6.0 0.00 0.00 0.00 58 1012.9
20260507234129 84 286 1.0 4.0 0.00 0.00 0.00 57 1012.9
20260507233628 85 241 1.0 3.0 0.00 0.00 0.00 55 1012.7
20260507233207 85 221 1.0 3.0 0.00 0.00 0.00 54 1012.9
20260507232625 86 261 2.0 6.0 0.00 0.00 0.00 53 1012.8
20260507232124 88 253 4.0 8.0 0.00 0.00 0.00 51 1012.7
20260507231623 89 251 4.0 6.0 0.00 0.00 0.00 51 1012.8
20260507231121 89 0.0 0.0 0.00 0.00 0.00 52 1012.6
20260507230620 89 273 3.0 4.0 0.00 0.00 0.00 52 1012.6
20260507230118 89 0.0 0.0 0.00 0.00 0.00 50 1012.6
20260507225617 89 260 5.0 8.0 0.00 0.00 0.00 49 1012.7
20260507225115 90 235 4.0 8.0 0.00 0.00 0.00 48 1012.5